[[{"header":{"parameterUnit":"m.s-1","parameterCategory":1,"la1":30.2991,"la2":30.254,"lo1":-89.0895,"lo2":-89.0444,"dy":0.0017,"dx":0.0017,"nx":28,"ny":28,"refTime":"2025-07-29T21:00:00:Z","depth":0,"parameterNumber":2,"parameterNumberName":"U-component_of_WINDS"},"data":[0,0,0,0,0,0,0,0,0,0,0,0,0,0,0,0,0,0,0,0,0,0,0,0,0,0,0,0,0,0,0,0,0,0,0,0,0,0,0,0,0,0,0,0,0,0,0,0,0,0,0,0,0,0,0,0,0,0,0.6799,0.68,0,0.6889,0.689,0.6891,0.6883,0.6882,0.6881,0.6879,0.6975,0.6979,0.6982,0,0,0,0,0,0,0,0,0,0,0,0,0,0.6625,0.6628,0.6799,0.68,0.6801,0.6889,0.689,0.6891,0.6884,0.6882,0.688,0.6879,0.6974,0.6978,0.6983,0,0,0,0,0,0,0,0,0,0,0,0,0,0.6706,0.6629,0.6799,0.6808,0.6809,0.6888,0.689,0.6891,0.6884,0.6882,0.688,0.6878,0.6972,0.6978,0.6983,0.706,0,0,0.7001,0.7003,0,0,0,0,0,0,0,0,0.6701,0.6712,0.6805,0.6807,0.6809,0.6873,0.6863,0.6948,0.6884,0.6856,0.6879,0.6877,0.6943,0.6951,0.6972,0.7064,0.7069,0.7001,0.7005,0.7007,0.7009,0,0,0,0,0,0,0,0.6696,0.6709,0.6834,0.6807,0.6809,0.6809,0.6818,0.6879,0.691,0.6858,0.6858,0.6868,0.6944,0.6967,0.6975,0.707,0.7001,0.7006,0.701,0.7012,0.7231,0.7234,0,0,0,0,0,0,0.6688,0.6704,0.6832,0.6837,0.6749,0.6814,0.6824,0.6854,0.6909,0.6915,0.687,0.6868,0.6958,0.6968,0.6978,0.7072,0.7007,0.7013,0.7016,0.7229,0.7232,0.7234,0,0,0,0,0,0,0.6684,0.6699,0.6828,0.677,0.6787,0.6819,0.6853,0.6857,0.6881,0.6918,0.6924,0.6888,0.6957,0.697,0.704,0.7076,0.7015,0.7021,0.7226,0.723,0.7233,0.7261,0,0,0,0,0,0,0.6679,0.6698,0.6726,0.6771,0.679,0.6887,0.6855,0.6861,0.689,0.6888,0.6936,0.6943,0.6956,0.7031,0.7045,0.7082,0.7025,0.7223,0.7228,0.7232,0.7258,0.7266,0.7272,0,0,0,0,0,0.6673,0.6731,0.6728,0.6743,0.6826,0.6889,0.69,0.6914,0.6893,0.6923,0.6947,0.6941,0.7069,0.7038,0.7054,0.7094,0.7221,0.7226,0.7232,0.7254,0.7264,0.7272,0,0,0,0,0,0,0.6691,0.6737,0.6734,0.6808,0.6845,0.6888,0.6926,0.6923,0.6968,0.6964,0.698,0.6991,0.7062,0.7084,0.7049,0.7171,0.7142,0.7151,0.7154,0.7164,0.7171,0.7165,0.703,0,0,0,0,0,0.6703,0.6749,0.6788,0.685,0.6868,0.6894,0.6922,0.6929,0.6968,0.6984,0.7013,0.7052,0.7101,0.7134,0.7181,0.726,0.7272,0.7295,0.7303,0.7309,0.7317,0.7362,0.7373,0.7252,0.7252,0.7252,0,0,0.6729,0.676,0.6789,0.6854,0.6883,0.6933,0.6907,0.696,0.6997,0.6992,0.706,0.7083,0.7128,0.7203,0.7238,0.7225,0.7352,0.7315,0.732,0.7325,0.7369,0.738,0.739,0.7256,0.7255,0.7254,0,0,0.6803,0.683,0.6886,0.6915,0.696,0.6976,0.699,0.7033,0.7048,0.7116,0.7114,0.7159,0.7243,0.7275,0.7303,0.7389,0.7386,0.7404,0.7444,0.7488,0.7498,0.7506,0.7539,0.755,0.7412,0.7412,0.7412,0,0.6831,0.6904,0.6915,0.6968,0.6998,0.6995,0.7052,0.708,0.7138,0.7159,0.7143,0.7249,0.7279,0.7363,0.7384,0.7405,0.7423,0.74,0.7495,0.7504,0.7512,0.7543,0.7555,0.7414,0.7414,0.7413,0.7413,0,0.6937,0.6987,0.7027,0.7082,0.7116,0.7171,0.7192,0.7225,0.7229,0.7248,0.7318,0.7354,0.7409,0.7429,0.7434,0.7514,0.7504,0.7491,0.7463,0.7526,0.7555,0.7567,0.7417,0.7416,0.7415,0.7415,0,0,0.7025,0.7085,0.71,0.7125,0.7174,0.7214,0.7269,0.7322,0.7351,0.7391,0.7439,0.751,0.7499,0.753,0.7539,0.7577,0.7645,0.756,0.7561,0.7576,0.7738,0.7749,0.7762,0.7643,0.7645,0.7647,0.7735,0,0.7105,0.7202,0.7214,0.7301,0.7349,0.7347,0.7395,0.7431,0.745,0.7495,0.7516,0.7567,0.7547,0.7566,0.7604,0.7629,0.7678,0.7623,0.769,0.7692,0.768,0.7777,0.7789,0.787,0.7746,0.7748,0.775,0,0.7211,0.7254,0.7345,0.7388,0.7409,0.7452,0.7502,0.7544,0.7585,0.7596,0.7631,0.7635,0.7694,0.7662,0.7744,0.7706,0.7734,0.775,0.7754,0.7762,0.7726,0.779,0.7896,0.7909,0.7768,0.7766,0.7765,0,0.7269,0.7349,0.7414,0.7436,0.7487,0.7518,0.7541,0.758,0.7611,0.7655,0.7676,0.7726,0.7754,0.7794,0.7812,0.7786,0.7894,0.7863,0.7907,0.7906,0.7931,0.7929,0.8044,0.7946,0.7946,0.7945,0.7945,0,0.7358,0.7415,0.7441,0.7481,0.7545,0.7559,0.7622,0.7644,0.7679,0.7725,0.7725,0.7769,0.7789,0.7835,0.785,0.7917,0.7929,0.7941,0.7945,0.7942,0.7941,0.7962,0.7958,0.7949,0.7948,0.7947,0.7947,0,0.7434,0.7453,0.7525,0.7567,0.7579,0.7625,0.7662,0.7702,0.772,0.7778,0.7793,0.7822,0.7877,0.7898,0.7966,0.7975,0.8054,0.8052,0.804,0.8041,0.8084,0.8081,0.8218,0.8238,0.8125,0.8126,0.8127,0,0.749,0.7534,0.7581,0.7611,0.7635,0.7683,0.7715,0.773,0.7764,0.7814,0.7849,0.7903,0.7948,0.8036,0.8065,0.8117,0.8117,0.8162,0.8125,0.8122,0.812,0.8118,0.8123,0.8169,0.817,0.8171,0.8172,0,0.7589,0.7597,0.7642,0.7691,0.7729,0.7768,0.7807,0.7832,0.7853,0.7891,0.7946,0.7981,0.805,0.8105,0.8158,0.8183,0.8182,0.8183,0.8196,0.8195,0.8187,0.8194,0.806,0.818,0.8179,0.8179,0.8178,0.8178,0.7659,0.7698,0.7737,0.7787,0.7818,0.7854,0.7894,0.7917,0.7963,0.802,0.8026,0.8087,0.8128,0.8199,0.8226,0.8275,0.8263,0.8282,0.8287,0.8292,0.8296,0.8178,0.8284,0.8284,0.8284,0.8284,0.8284,0,0.7759,0.7784,0.783,0.7884,0.7924,0.7918,0.796,0.7995,0.8048,0.8085,0.8129,0.8194,0.8247,0.8279,0.8333,0.8366,0.8367,0.838,0.8379,0.8385,0.8302,0.8286,0.8378,0.8378,0.8378,0.8378,0.8378,0.8378,0.7816,0.7882,0.7895,0.7976,0.8001,0.806,0.8085,0.8119,0.8149,0.8221,0.8265,0.8285,0.8321,0.8378,0.8427,0.8435,0.8456,0.847,0.8478,0.84,0.8391,0.8381,0.8366,0.8474,0.8474,0.8556,0.8557,0.8558]},{"header":{"parameterUnit":"m.s-1","parameterCategory":1,"la1":30.2991,"la2":30.254,"lo1":-89.0895,"lo2":-89.0444,"dy":0.0017,"dx":0.0017,"nx":28,"ny":28,"refTime":"2025-07-29T21:00:00:Z","depth":0,"parameterNumber":3,"parameterNumberName":"V-component_of_WINDS"},"data":[0,0,0,0,0,0,0,0,0,0,0,0,0,0,0,0,0,0,0,0,0,0,0,0,0,0,0,0,0,0,0,0,0,0,0,0,0,0,0,0,0,0,0,0,0,0,0,0,0,0,0,0,0,0,0,0,0,0,-1.3782,-1.3782,0,-1.3752,-1.3752,-1.3751,-1.3807,-1.3809,-1.3811,-1.3813,-1.3779,-1.3777,-1.3774,0,0,0,0,0,0,0,0,0,0,0,0,0,-1.3888,-1.3886,-1.3782,-1.3782,-1.3782,-1.3752,-1.3752,-1.3751,-1.3807,-1.3809,-1.3811,-1.3813,-1.378,-1.3777,-1.3774,0,0,0,0,0,0,0,0,0,0,0,0,0,-1.3848,-1.3885,-1.3782,-1.3806,-1.3808,-1.3752,-1.3752,-1.3751,-1.3806,-1.3809,-1.3812,-1.3814,-1.3781,-1.3777,-1.3773,-1.3693,0,0,-1.3761,-1.376,0,0,0,0,0,0,0,0,-1.385,-1.3844,-1.3803,-1.3804,-1.3806,-1.3786,-1.3777,-1.3731,-1.3806,-1.3807,-1.3813,-1.3816,-1.3779,-1.3776,-1.3764,-1.3691,-1.369,-1.3761,-1.3759,-1.3757,-1.3756,0,0,0,0,0,0,0,-1.3853,-1.3846,-1.377,-1.3802,-1.3804,-1.3818,-1.3815,-1.3768,-1.3777,-1.3807,-1.3811,-1.3807,-1.3781,-1.3767,-1.3763,-1.369,-1.3761,-1.3758,-1.3755,-1.3754,-1.3554,-1.3551,0,0,0,0,0,0,-1.3853,-1.3848,-1.3771,-1.3769,-1.3836,-1.3814,-1.3811,-1.379,-1.3778,-1.3779,-1.3804,-1.3809,-1.3773,-1.3768,-1.3762,-1.367,-1.3757,-1.3753,-1.3751,-1.3556,-1.3553,-1.355,0,0,0,0,0,0,-1.3855,-1.3846,-1.3772,-1.381,-1.3801,-1.3809,-1.3785,-1.3788,-1.3774,-1.3776,-1.3778,-1.3789,-1.3775,-1.3768,-1.3711,-1.367,-1.3752,-1.3748,-1.356,-1.3555,-1.3551,-1.3483,0,0,0,0,0,0,-1.3858,-1.3846,-1.3816,-1.3809,-1.3799,-1.3721,-1.3782,-1.3785,-1.3768,-1.3774,-1.3762,-1.3763,-1.3776,-1.3716,-1.3707,-1.3666,-1.3745,-1.3564,-1.3558,-1.3553,-1.3489,-1.3477,-1.3467,0,0,0,0,0,-1.3862,-1.3796,-1.3814,-1.3804,-1.3761,-1.3719,-1.3713,-1.373,-1.3764,-1.3734,-1.3735,-1.3764,-1.3675,-1.371,-1.37,-1.3657,-1.3566,-1.356,-1.3553,-1.3494,-1.3479,-1.3467,0,0,0,0,0,0,-1.3797,-1.3796,-1.3815,-1.3746,-1.3732,-1.3728,-1.369,-1.3713,-1.3689,-1.3696,-1.3718,-1.3715,-1.3654,-1.3649,-1.3688,-1.358,-1.3627,-1.3618,-1.3585,-1.3571,-1.356,-1.3563,-1.3742,0,0,0,0,0,-1.3774,-1.374,-1.3741,-1.368,-1.3672,-1.3682,-1.3664,-1.3679,-1.3665,-1.366,-1.3657,-1.3642,-1.3612,-1.3591,-1.3563,-1.3489,-1.3488,-1.3454,-1.3443,-1.3434,-1.3426,-1.339,-1.3375,-1.3528,-1.3528,-1.3528,0,0,-1.3728,-1.3723,-1.37,-1.3667,-1.3658,-1.3623,-1.3677,-1.3636,-1.3611,-1.3653,-1.36,-1.3598,-1.3583,-1.3518,-1.3489,-1.3512,-1.3384,-1.3425,-1.3418,-1.3415,-1.3381,-1.3367,-1.3354,-1.3523,-1.3524,-1.3525,0,0,-1.3625,-1.3617,-1.3567,-1.3558,-1.3545,-1.3552,-1.354,-1.3533,-1.3534,-1.3481,-1.3513,-1.3483,-1.3429,-1.3418,-1.3405,-1.3302,-1.3328,-1.3292,-1.3233,-1.3198,-1.3186,-1.3175,-1.3141,-1.3128,-1.3284,-1.3284,-1.3284,0,-1.3569,-1.3518,-1.3538,-1.3497,-1.3482,-1.352,-1.347,-1.346,-1.3437,-1.3427,-1.3453,-1.3389,-1.3381,-1.3316,-1.3291,-1.3278,-1.3266,-1.3294,-1.3186,-1.3175,-1.3166,-1.3133,-1.312,-1.328,-1.328,-1.3281,-1.3281,0,-1.345,-1.3414,-1.3375,-1.3355,-1.3336,-1.329,-1.3304,-1.3282,-1.3299,-1.3304,-1.3251,-1.3243,-1.3216,-1.3201,-1.3216,-1.3138,-1.3154,-1.3182,-1.323,-1.3147,-1.3117,-1.3104,-1.3274,-1.3275,-1.3277,-1.3278,0,0,-1.3305,-1.3299,-1.3285,-1.3278,-1.3267,-1.3239,-1.3196,-1.317,-1.3152,-1.3135,-1.3101,-1.3056,-1.3083,-1.3069,-1.3083,-1.3051,-1.2973,-1.3085,-1.3085,-1.3066,-1.2891,-1.2871,-1.2856,-1.299,-1.2988,-1.2986,-1.2893,0,-1.3206,-1.3133,-1.3151,-1.3079,-1.3047,-1.3084,-1.3047,-1.3036,-1.304,-1.3014,-1.3018,-1.2987,-1.3024,-1.3016,-1.2986,-1.2989,-1.2939,-1.2996,-1.2959,-1.2958,-1.2964,-1.284,-1.2818,-1.2731,-1.2881,-1.2879,-1.2877,0,-1.308,-1.3062,-1.2987,-1.2984,-1.2972,-1.2938,-1.2918,-1.2891,-1.2881,-1.2886,-1.2871,-1.2893,-1.2851,-1.2898,-1.2842,-1.288,-1.2866,-1.2866,-1.2863,-1.2861,-1.2914,-1.2837,-1.2703,-1.2691,-1.2859,-1.286,-1.2861,0,-1.2986,-1.2941,-1.2892,-1.2884,-1.2879,-1.2855,-1.2852,-1.2844,-1.2828,-1.281,-1.2801,-1.2777,-1.2764,-1.2746,-1.2761,-1.2793,-1.2703,-1.275,-1.2707,-1.2707,-1.2688,-1.2689,-1.2552,-1.2675,-1.2675,-1.2675,-1.2676,0,-1.2874,-1.2828,-1.285,-1.282,-1.2769,-1.2791,-1.274,-1.274,-1.2734,-1.2705,-1.2734,-1.2706,-1.2726,-1.27,-1.2711,-1.2665,-1.2658,-1.2662,-1.2666,-1.266,-1.266,-1.2653,-1.266,-1.2672,-1.2673,-1.2673,-1.2674,0,-1.2761,-1.2773,-1.2722,-1.2723,-1.2722,-1.2685,-1.2685,-1.2658,-1.2664,-1.2627,-1.262,-1.263,-1.2601,-1.2614,-1.2582,-1.259,-1.2531,-1.2541,-1.2535,-1.2539,-1.2496,-1.2501,-1.235,-1.2333,-1.2465,-1.2464,-1.2463,0,-1.269,-1.2655,-1.2653,-1.2636,-1.2632,-1.2604,-1.2589,-1.2609,-1.2592,-1.258,-1.2554,-1.2528,-1.2508,-1.246,-1.2465,-1.2442,-1.2454,-1.2402,-1.245,-1.2447,-1.2456,-1.2459,-1.2457,-1.2393,-1.2392,-1.2391,-1.239,0,-1.2564,-1.2572,-1.255,-1.2531,-1.2513,-1.2498,-1.2486,-1.2471,-1.2491,-1.247,-1.2442,-1.2427,-1.2397,-1.2371,-1.2351,-1.2348,-1.2373,-1.2374,-1.2364,-1.2359,-1.2358,-1.2361,-1.2512,-1.2378,-1.2379,-1.238,-1.2381,-1.2381,-1.2471,-1.2443,-1.2439,-1.2414,-1.2407,-1.2396,-1.2371,-1.2376,-1.2353,-1.2331,-1.2343,-1.2311,-1.2304,-1.228,-1.2274,-1.2249,-1.2269,-1.2253,-1.2249,-1.2246,-1.2242,-1.236,-1.2245,-1.2245,-1.2246,-1.2246,-1.2246,0,-1.2349,-1.2348,-1.2325,-1.2309,-1.229,-1.2315,-1.2304,-1.2286,-1.2258,-1.2249,-1.223,-1.2199,-1.2175,-1.2178,-1.2156,-1.2136,-1.2147,-1.213,-1.2133,-1.2132,-1.2223,-1.2236,-1.2122,-1.2122,-1.2122,-1.2122,-1.2122,-1.2122,-1.2283,-1.2239,-1.2248,-1.2201,-1.2201,-1.217,-1.2162,-1.2152,-1.2146,-1.211,-1.2091,-1.2094,-1.2091,-1.207,-1.2049,-1.2051,-1.2043,-1.2022,-1.2028,-1.2113,-1.2125,-1.2137,-1.215,-1.2019,-1.2019,-1.194,-1.1939,-1.1938]}]]